Location: Estes Par
(40.3770°N, 105.5210°W)
Time: 13:27:58
(UTC-07:00)

OTV 5 (USA 277) - Pass Details

Date: 15 October 2017
Orbit: 404 x 417 km, 43.0° (Epoch: 07 September)

Event Time Altitude Azimuth Distance (km) Brightness Sun altitude
Rises 19:50:42 0° 278° (W) 2,348 ? -17.7°
Reaches altitude 10° 19:52:51 10° 283° (WNW) 1,485 ? -18.1°
Maximum altitude 19:56:08 51° 1° (N) 525 ? -18.8°
Enters shadow 19:56:30 48° 27° (NNE) 547 ? -18.8°
